Total_Precipitation_Accumulation
0.03 0.07 0.08 0.09 0.12 0.15 0.15 0.25 0.35 0.36 0.33 0.38 0.51 0.67 0.88 0.96 1.17 1.37 1.45 1.57 1.71 1.83 2.19 2.63 3.31 4.30 4.78 5.46 5.39 4.97 4.68 4.47 4.38 4.30 4.29 4.31 4.39 4.53 4.65 4.57 4.34 4.27 4.17 4.24
0.05 0.06 0.05 0.06 0.09 0.10 0.13 0.22 0.29 0.38 0.43 0.46 0.64 0.80 1.03 1.13 1.23 1.33 1.31 1.49 1.55 1.70 2.30 2.94 3.45 4.05 4.43 4.55 4.76 5.05 5.05 4.98 4.71 4.60 4.87 5.28 5.49 5.37 5.39 5.32 5.24 5.06 4.91 4.88
0.05 0.05 0.04 0.05 0.08 0.08 0.13 0.19 0.23 0.37 0.50 0.64 0.89 1.19 1.27 1.30 1.41 1.37 1.33 1.42 1.48 1.65 2.04 2.70 3.24 3.68 4.19 4.51 4.56 4.82 4.95 5.13 5.37 5.52 5.65 6.01 6.27 6.09 5.83 5.46 5.29 5.06 4.78 4.72
0.04 0.03 0.04 0.07 0.08 0.09 0.12 0.13 0.19 0.29 0.50 0.77 0.97 1.48 1.58 1.49 1.56 1.58 1.65 1.66 1.66 1.81 2.02 2.38 2.82 3.14 3.55 3.85 4.14 4.51 4.73 4.94 5.48 6.20 6.48 6.51 6.57 6.38 6.02 5.70 5.38 4.98 4.64 4.39
0.04 0.04 0.06 0.07 0.07 0.07 0.08 0.10 0.16 0.25 0.43 0.77 0.91 1.24 1.76 1.69 1.76 1.77 1.82 1.85 1.85 1.87 1.99 2.15 2.26 2.63 3.15 3.40 3.64 4.10 4.51 4.98 5.59 6.12 6.46 6.67 6.56 6.30 6.00 5.54 5.18 4.79 4.43 4.08
0.05 0.05 0.06 0.07 0.08 0.06 0.07 0.12 0.22 0.31 0.53 0.96 0.82 1.01 1.77 1.95 1.91 1.78 1.77 1.85 1.85 1.79 1.84 1.94 2.12 2.35 2.66 2.99 3.27 3.57 4.10 4.77 5.20 5.56 5.88 6.05 6.15 6.03 5.69 5.21 4.91 4.58 4.20 3.87
0.09 0.08 0.06 0.07 0.08 0.09 0.14 0.36 0.73 0.90 1.05 1.05 0.71 1.06 1.85 2.01 1.97 1.90 1.89 2.07 1.89 1.64 1.70 1.96 2.08 2.27 2.52 2.81 3.17 3.49 3.89 4.43 4.73 4.83 4.99 5.28 5.47 5.45 5.30 5.07 4.73 4.33 3.82 3.34
0.18 0.16 0.09 0.07 0.11 0.13 0.17 0.36 0.81 1.07 1.08 1.04 0.99 1.65 2.11 2.05 1.99 1.99 1.95 1.97 1.89 1.79 1.92 2.01 2.04 2.20 2.53 2.72 2.88 3.25 3.49 4.01 4.28 4.16 4.27 4.56 4.77 4.73 4.57 4.35 3.90 3.49 3.12 2.82
0.24 0.23 0.10 0.09 0.11 0.12 0.18 0.27 0.39 0.68 0.80 1.10 1.53 2.09 2.47 2.44 2.33 2.20 2.08 1.90 1.86 1.85 2.01 2.08 1.99 2.07 2.29 2.53 2.70 2.84 3.01 3.40 3.67 3.63 3.66 3.69 3.69 3.71 3.60 3.39 3.08 2.73 2.46 2.23
0.18 0.23 0.14 0.12 0.14 0.17 0.20 0.25 0.40 0.76 1.10 1.42 1.73 2.40 3.02 2.87 2.55 2.27 2.13 1.88 1.84 1.75 1.80 1.88 1.93 2.02 1.93 2.00 2.31 2.55 2.61 2.77 2.90 2.89 2.88 2.86 2.91 2.99 2.89 2.61 2.31 2.17 2.07 1.91
0.16 0.27 0.23 0.21 0.25 0.28 0.30 0.34 0.41 0.63 0.79 1.24 1.76 2.40 2.53 2.62 2.44 2.19 2.00 1.81 1.67 1.60 1.68 1.79 1.88 1.92 1.79 1.70 1.82 2.07 2.27 2.36 2.47 2.57 2.58 2.45 2.38 2.30 2.23 2.09 1.89 1.86 1.81 1.68
0.23 0.34 0.41 0.33 0.27 0.24 0.29 0.34 0.44 0.77 0.83 0.97 1.50 2.29 2.25 2.48 2.53 2.39 2.12 1.92 1.89 1.79 1.81 1.86 2.01 1.92 1.79 1.80 1.80 1.83 1.97 2.08 2.16 2.19 2.30 2.31 2.19 1.99 1.88 1.80 1.72 1.62 1.55 1.50
0.30 0.50 0.75 0.82 0.63 0.41 0.36 0.38 0.43 0.50 0.71 1.00 1.58 2.45 2.37 2.39 2.42 2.35 2.15 2.09 2.09 2.07 2.10 2.05 2.05 1.95 1.85 1.83 1.73 1.63 1.69 1.80 1.87 1.94 1.98 1.96 1.88 1.76 1.65 1.62 1.62 1.49 1.41 1.35
0.31 0.54 0.86 1.24 1.06 0.67 0.55 0.47 0.49 0.58 0.89 1.10 1.46 2.00 2.29 2.23 2.30 2.42 2.37 2.16 2.13 2.20 2.20 2.14 2.08 2.06 1.98 1.90 1.75 1.62 1.60 1.56 1.51 1.61 1.72 1.73 1.69 1.64 1.55 1.43 1.42 1.39 1.35 1.30
0.42 0.62 0.60 0.61 0.59 0.57 0.55 0.53 0.53 0.62 0.73 1.13 1.45 1.89 2.24 2.15 2.27 2.55 2.59 2.43 2.27 2.30 2.30 2.23 2.26 2.18 2.16 2.12 1.97 1.83 1.71 1.60 1.52 1.50 1.48 1.55 1.66 1.65 1.57 1.50 1.46 1.41 1.32 1.22
0.47 0.62 0.63 0.58 0.51 0.55 0.59 0.63 0.59 0.61 0.77 1.13 1.50 2.01 2.11 2.11 2.21 2.34 2.49 2.42 2.30 2.31 2.37 2.41 2.51 2.45 2.39 2.35 2.16 2.00 1.86 1.66 1.53 1.51 1.49 1.51 1.58 1.57 1.51 1.48 1.42 1.37 1.32 1.29
0.49 0.66 0.82 0.73 0.52 0.78 1.15 0.98 0.86 0.85 0.96 1.25 1.65 1.86 1.80 1.92 2.15 2.28 2.37 2.46 2.43 2.52 2.65 2.71 2.66 2.63 2.53 2.44 2.42 2.32 2.08 1.85 1.76 1.65 1.54 1.52 1.49 1.43 1.40 1.29 1.26 1.32 1.33 1.30
0.53 0.71 0.84 0.89 0.96 1.54 1.44 0.95 0.91 1.07 1.23 1.32 1.42 1.47 1.64 1.85 2.02 2.12 2.34 2.55 2.58 2.57 2.53 2.62 2.58 2.59 2.53 2.42 2.32 2.26 2.12 1.96 1.76 1.64 1.51 1.42 1.41 1.38 1.38 1.34 1.31 1.34 1.35 1.28
0.37 0.66 0.95 1.10 1.45 1.57 1.46 1.03 1.04 1.27 1.66 1.48 1.50 1.48 1.60 1.70 1.88 2.26 2.33 2.41 2.61 2.49 2.39 2.48 2.57 2.60 2.57 2.46 2.24 2.10 2.01 1.93 1.84 1.65 1.43 1.31 1.32 1.29 1.29 1.32 1.32 1.31 1.31 1.25
0.40 0.60 1.07 1.35 1.73 1.95 1.76 1.04 0.87 1.32 2.35 1.78 1.65 1.65 1.62 1.74 2.27 2.41 2.15 2.07 2.17 2.24 2.34 2.47 2.58 2.63 2.60 2.53 2.17 2.00 1.87 1.72 1.57 1.38 1.27 1.24 1.25 1.18 1.16 1.23 1.27 1.27 1.28 1.23
0.87 0.95 1.19 1.51 1.96 2.06 1.30 0.83 0.95 1.92 2.42 1.85 1.74 1.69 1.72 1.95 2.14 1.93 1.77 1.85 2.02 2.19 2.32 2.42 2.45 2.47 2.41 2.36 2.09 1.95 1.76 1.59 1.33 1.14 1.10 1.16 1.17 1.11 1.06 1.10 1.16 1.22 1.18 1.18
1.23 1.43 1.54 1.71 2.15 2.28 1.14 0.93 1.35 1.71 1.42 1.36 1.39 1.38 1.43 1.54 1.59 1.61 1.66 1.73 1.80 1.93 2.13 2.24 2.28 2.26 2.15 2.04 1.89 1.78 1.62 1.36 1.16 1.05 1.03 1.10 1.16 0.99 0.90 0.99 1.00 1.05 1.18 1.14
1.22 1.41 1.66 1.93 2.28 1.89 1.24 1.19 1.19 1.23 1.23 1.17 1.23 1.21 1.23 1.31 1.38 1.48 1.64 1.73 1.75 1.73 1.89 1.96 1.88 1.77 1.77 1.70 1.60 1.50 1.36 1.18 1.05 1.03 1.07 1.08 1.08 1.02 0.98 1.02 1.00 1.02 1.10 1.11
1.32 1.15 1.43 1.70 1.81 1.50 1.21 1.11 1.09 0.99 0.97 1.01 1.14 1.14 1.09 1.08 1.05 1.16 1.30 1.44 1.52 1.51 1.55 1.62 1.61 1.54 1.50 1.43 1.34 1.24 1.10 1.06 1.07 1.07 1.08 1.11 1.09 1.01 0.98 1.02 0.95 0.94 0.93 0.96
1.37 1.36 1.59 1.80 1.77 1.54 1.34 1.15 1.04 1.00 0.97 1.01 1.06 1.00 0.92 0.86 0.86 0.90 1.05 1.13 1.19 1.24 1.25 1.31 1.40 1.41 1.28 1.18 1.13 1.08 0.98 0.98 1.07 1.11 1.06 1.05 0.97 0.95 0.96 0.93 0.81 0.75 0.71 0.74
1.25 1.46 1.78 1.99 1.69 1.60 1.45 1.12 0.92 0.94 0.95 0.91 0.88 0.82 0.81 0.77 0.75 0.79 0.96 1.06 1.08 1.07 1.11 1.21 1.28 1.24 1.18 1.10 1.04 0.98 0.88 0.89 1.01 1.06 1.02 0.94 0.88 0.86 0.83 0.86 0.80 0.71 0.65 0.66